FW9784 Weather Reports


Display with metric or nautical units.
time (UTC)temp
F
wind
direction
speed
MPH
gust
MPH
rain 1hr
in
rain 24hr
in
rain mn
in
humidity
%
barometer
mb
20260905182631 79 252 4.0 9.0 0.00 0.00 0.00 70 1014.5
20260905182134 80 0 3.0 9.0 0.00 0.00 0.00 70 1014.5
20260905181643 80 217 3.0 6.0 0.00 0.00 0.00 69 1014.5
20260905181134 80 227 2.0 8.0 0.00 0.00 0.00 69 1014.5
20260905180627 80 222 3.0 8.0 0.00 0.00 0.00 68 1014.5
20260905180129 80 250 3.0 7.0 0.00 0.00 0.00 69 1014.5
20260905175633 80 208 3.0 5.0 0.00 0.00 0.00 68 1014.6
20260905175128 79 182 2.0 5.0 0.00 0.00 0.00 68 1014.5
20260905174631 78 80 2.0 4.0 0.00 0.00 0.00 65 1014.5
20260905174132 78 292 2.0 4.0 0.00 0.00 0.00 64 1014.5
20260905173629 79 182 2.0 4.0 0.00 0.00 0.00 65 1014.4
20260905173129 79 250 2.0 5.0 0.00 0.00 0.00 65 1014.3
20260905172637 79 168 2.0 5.0 0.00 0.00 0.00 65 1014.3
20260905172130 79 154 1.0 5.0 0.00 0.00 0.00 67 1014.3
20260905171630 78 156 2.0 5.0 0.00 0.00 0.00 68 1014.3
20260905171542 78 178 2.0 5.0 0.00 0.00 0.00 67 1014.3
20260905170627 78 233 2.0 5.0 0.00 0.00 0.00 68 1014.3
20260905170126 78 187 1.0 4.0 0.00 0.00 0.00 69 1014.2
20260905165626 78 144 1.0 3.0 0.00 0.00 0.00 69 1014.3
20260905165129 77 107 2.0 7.0 0.00 0.00 0.00 70 1014.2
20260905164631 77 96 1.0 7.0 0.00 0.00 0.00 71 1014.2
20260905164123 76 157 1.0 4.0 0.00 0.00 0.00 72 1014.2
20260905163627 76 71 2.0 4.0 0.00 0.00 0.00 72 1014.1
20260905163117 76 103 1.0 4.0 0.00 0.00 0.00 73 1014.1
20260905163040 76 304 1.0 4.0 0.00 0.00 0.00 73 1014.1
20260905162114 75 101 2.0 4.0 0.00 0.00 0.00 74 1014.0
20260905161612 75 103 1.0 4.0 0.00 0.00 0.00 75 1014.1
20260905161110 75 84 1.0 4.0 0.00 0.00 0.00 76 1014.1
20260905160619 75 119 2.0 4.0 0.00 0.00 0.00 77 1014.1
20260905160110 74 51 1.0 3.0 0.00 0.00 0.00 78 1014.0
20260905155614 74 116 1.0 3.0 0.00 0.00 0.00 79 1014.0
20260905155301 72 10 2.0 4.0 0.00 0.00 0.00 82 1013.9
20260905155142 73 116 1.0 3.0 0.00 0.00 0.00 81 1013.9
20260905154103 72 49 2.0 4.0 0.00 0.00 0.00 82 1013.9
20260905153826 72 49 2.0 4.0 0.00 0.00 0.00 82 1013.9
20260905153435 71 111 2.0 4.0 0.00 0.00 0.00 83 1013.8
20260905153020 71 94 2.0 4.0 0.00 0.00 0.00 84 1013.8
20260905152101 71 46 1.0 4.0 0.00 0.00 0.00 85 1013.8
20260905151604 70 70 1.0 3.0 0.00 0.00 0.00 86 1013.8
20260905151442 70 51 0.0 0.0 0.00 0.00 0.00 88 1013.7
20260905150601 69 51 0.0 0.0 0.00 0.00 0.00 90 1013.8
20260905150101 68 51 1.0 3.0 0.00 0.00 0.00 91 1013.7
20260905145601 68 51 1.0 4.0 0.00 0.00 0.00 92 1013.7
20260905145340 66 101 0.0 2.0 0.00 0.00 0.00 94 1013.6
20260905145250 66 101 0.0 0.0 0.00 0.00 0.00 95 1013.5
20260905145203 67 101 1.0 4.0 0.00 0.00 0.00 92 1013.7
20260905144708 67 101 1.0 3.0 0.00 0.00 0.00 94 1013.6
20260905143107 65 101 0.0 0.0 0.00 0.00 0.00 96 1013.5
20260905142558 65 101 0.0 0.0 0.00 0.00 0.00 96 1013.5
20260905142057 64 101 0.0 0.0 0.00 0.00 0.00 96 1013.5
20260905141941 64 101 0.0 0.0 0.00 0.00 0.00 96 1013.5
20260905141059 63 101 0.0 0.0 0.00 0.00 0.00 95 1013.4
20260905140547 63 101 0.0 0.0 0.00 0.00 0.00 95 1013.4
20260905140041 63 101 0.0 0.0 0.00 0.00 0.00 95 1013.3
20260905135535 63 101 0.0 0.0 0.00 0.00 0.00 94 1013.3
20260905135038 63 101 0.0 0.0 0.00 0.00 0.00 94 1013.2
20260905134533 63 101 0.0 0.0 0.00 0.00 0.00 94 1013.1
20260905134046 63 101 0.0 0.0 0.00 0.00 0.00 94 1013.1
20260905133531 63 101 0.0 0.0 0.00 0.00 0.00 94 1012.9
20260905133035 63 101 0.0 0.0 0.00 0.00 0.00 94 1013.0
20260905132531 63 101 0.0 0.0 0.00 0.00 0.00 94 1012.9
20260905132032 63 101 0.0 0.0 0.00 0.00 0.00 94 1012.9
20260905131534 63 101 0.0 0.0 0.00 0.00 0.00 94 1012.9
20260905131037 63 101 0.0 0.0 0.00 0.00 0.00 94 1012.8
20260905130529 63 101 0.0 0.0 0.00 0.00 0.00 94 1012.8
20260905130032 63 101 0.0 0.0 0.00 0.00 0.00 94 1012.7
20260905125534 63 101 0.0 0.0 0.00 0.00 0.00 94 1012.8
20260905125034 63 101 0.0 0.0 0.00 0.00 0.00 93 1012.9
20260905124529 63 101 0.0 0.0 0.00 0.00 0.00 93 1012.8
20260905124029 63 101 0.0 0.0 0.00 0.00 0.00 93 1012.8
20260905123531 63 101 0.0 0.0 0.00 0.00 0.00 93 1012.7
20260905123029 64 101 0.0 0.0 0.00 0.00 0.00 93 1012.7
20260905122529 64 101 0.0 0.0 0.00 0.00 0.00 93 1012.7
20260905122330 64 101 0.0 0.0 0.00 0.00 0.00 93 1012.8
20260905122207 64 101 0.0 0.0 0.00 0.00 0.00 93 1012.7
20260905121037 64 101 0.0 0.0 0.00 0.00 0.00 93 1012.8
20260905120531 64 101 0.0 0.0 0.00 0.00 0.00 93 1012.9
20260905120033 64 101 0.0 0.0 0.00 0.00 0.00 93 1012.8
20260905115856 64 101 0.0 0.0 0.00 0.00 0.00 93 1012.8
20260905115034 64 101 0.0 0.0 0.00 0.00 0.00 93 1012.8
20260905114529 64 101 0.0 0.0 0.00 0.00 0.00 93 1012.9
20260905114028 64 101 0.0 0.0 0.00 0.00 0.00 93 1012.8
20260905113532 64 101 0.0 0.0 0.00 0.00 0.00 93 1012.8
20260905113029 64 101 0.0 0.0 0.00 0.00 0.00 93 1012.8
20260905112527 64 101 0.0 0.0 0.00 0.00 0.00 92 1012.8
20260905112028 64 101 0.0 0.0 0.00 0.00 0.00 92 1012.9
20260905111525 64 101 0.0 0.0 0.00 0.00 0.00 92 1012.9
20260905111025 64 101 0.0 0.0 0.00 0.00 0.00 92 1012.9
20260905110923 64 101 0.0 0.0 0.00 0.00 0.00 92 1013.0
20260905110024 64 101 0.0 0.0 0.00 0.00 0.00 92 1013.0
20260905105525 64 101 0.0 0.0 0.00 0.00 0.00 92 1012.9
20260905105032 64 101 0.0 0.0 0.00 0.00 0.00 92 1012.9
20260905104525 65 101 0.0 0.0 0.00 0.00 0.00 91 1013.0
20260905104025 65 101 0.0 0.0 0.00 0.00 0.00 91 1013.0
20260905103526 65 101 0.0 0.0 0.00 0.00 0.00 92 1013.1
20260905103025 65 101 0.0 0.0 0.00 0.00 0.00 92 1013.1
20260905102524 65 101 0.0 0.0 0.00 0.00 0.00 92 1013.1
20260905102314 65 101 0.0 0.0 0.00 0.00 0.00 91 1013.1
20260905102200 65 101 0.0 0.0 0.00 0.00 0.00 92 1013.1
20260905101024 65 101 0.0 0.0 0.00 0.00 0.00 91 1013.1
20260905100527 65 101 0.0 0.0 0.00 0.00 0.00 91 1013.1
20260905100038 65 101 0.0 0.0 0.00 0.00 0.00 91 1013.1
20260905095547 66 101 0.0 0.0 0.00 0.00 0.00 91 1013.1
20260905095034 66 101 0.0 0.0 0.00 0.00 0.00 91 1013.1
20260905094527 66 101 0.0 0.0 0.00 0.00 0.00 91 1013.1
20260905094027 66 101 0.0 1.0 0.00 0.00 0.00 91 1013.1
20260905093527 66 101 0.0 1.0 0.00 0.00 0.00 91 1013.1
20260905093354 66 101 0.0 0.0 0.00 0.00 0.00 91 1013.1
20260905092542 66 101 0.0 1.0 0.00 0.00 0.00 91 1013.2
20260905092037 66 101 0.0 0.0 0.00 0.00 0.00 91 1013.0
20260905092032 66 101 0.0 0.0 0.00 0.00 0.00 90 1013.2
20260905092027 66 101 0.0 1.0 0.00 0.00 0.00 91 1013.1
20260905091552 66 101 0.0 0.0 0.00 0.00 0.00 91 1013.1
20260905090023 66 101 0.0 0.0 0.00 0.00 0.00 90 1013.2
20260905085522 67 101 0.0 0.0 0.00 0.00 0.00 90 1013.1
20260905085022 67 101 0.0 0.0 0.00 0.00 0.00 90 1013.1
20260905084911 67 101 0.0 0.0 0.00 0.00 0.00 90 1013.2
20260905084037 67 101 0.0 1.0 0.00 0.00 0.00 90 1013.3
20260905084023 67 101 0.0 0.0 0.00 0.00 0.00 90 1013.2
20260905083021 67 101 0.0 1.0 0.00 0.00 0.00 90 1013.2
20260905082524 67 101 0.0 2.0 0.00 0.00 0.00 90 1013.2
20260905082430 67 101 0.0 2.0 0.00 0.00 0.00 90 1013.3
20260905081840 67 101 0.0 2.0 0.00 0.00 0.00 90 1013.3
20260905081018 67 101 0.0 2.0 0.00 0.00 0.00 90 1013.3
20260905080520 67 101 0.0 0.0 0.00 0.00 0.00 89 1013.4
20260905080244 67 101 0.0 0.0 0.00 0.00 0.00 90 1013.3
20260905080152 67 101 0.0 0.0 0.00 0.00 0.00 90 1013.4
20260905075017 68 101 0.0 0.0 0.00 0.00 0.00 89 1013.4
20260905074516 68 101 0.0 0.0 0.00 0.00 0.00 89 1013.3
20260905074017 68 101 0.0 0.0 0.00 0.00 0.00 89 1013.3
20260905073514 68 101 0.0 3.0 0.00 0.00 0.00 90 1013.3
20260905073016 68 101 1.0 3.0 0.00 0.00 0.00 90 1013.3
20260905072840 68 101 1.0 3.0 0.00 0.00 0.00 90 1013.3
20260905072015 68 101 1.0 3.0 0.00 0.00 0.00 90 1013.3
20260905071510 68 101 1.0 3.0 0.00 0.00 0.00 90 1013.3
20260905071011 68 101 1.0 3.0 0.00 0.00 0.00 90 1013.2
20260905070507 68 101 2.0 6.0 0.00 0.00 0.00 91 1013.1
20260905070010 68 101 2.0 6.0 0.00 0.00 0.00 91 1013.1
20260905065505 68 114 1.0 4.0 0.00 0.00 0.00 91 1013.2
20260905065010 68 114 1.0 2.0 0.00 0.00 0.00 91 1013.2
20260905064511 68 114 1.0 2.0 0.00 0.00 0.00 91 1013.1
20260905064010 68 114 0.0 3.0 0.00 0.00 0.00 91 1013.2
20260905063511 67 114 0.0 3.0 0.00 0.00 0.00 91 1013.3
20260905063010 67 0 0.0 0.0 0.00 0.00 0.00 91 1013.1
20260905062511 68 0 0.0 0.0 0.00 0.00 0.00 91 1013.1
20260905062507 67 0 0.0 0.0 0.00 0.00 0.00 91 1013.1
20260905061522 68 0 0.0 0.0 0.00 0.00 0.00 91 1013.1
20260905061011 68 0 0.0 0.0 0.00 0.00 0.00 91 1013.0
20260905060510 68 0 0.0 0.0 0.00 0.00 0.00 90 1013.0
20260905060002 68 0 0.0 0.0 0.00 0.00 0.00 90 1013.0
20260905055504 68 0 0.0 0.0 0.00 0.00 0.00 91 1013.0
20260905055003 68 0 0.0 0.0 0.00 0.00 0.00 90 1013.0
20260905054504 69 0 0.0 0.0 0.00 0.00 0.00 90 1013.0
20260905054001 69 0 0.0 0.0 0.00 0.00 0.00 90 1013.0
20260905053518 69 0 0.0 0.0 0.00 0.00 0.00 90 1013.0
20260905053003 69 0 0.0 0.0 0.00 0.00 0.00 90 1013.0
20260905052529 69 0 0.0 0.0 0.00 0.00 0.00 91 1013.1
20260905052007 69 0 0.0 2.0 0.00 0.00 0.00 91 1013.1
20260905051808 69 0 0.0 1.0 0.00 0.00 0.00 90 1012.9
20260905051801 69 0 1.0 3.0 0.00 0.00 0.00 90 1013.1
20260905051607 69 0 0.0 2.0 0.00 0.00 0.00 90 1013.1
20260905050605 69 0 1.0 3.0 0.00 0.00 0.00 91 1012.9
20260905045453 69 0 1.0 3.0 0.00 0.00 0.00 90 1013.1
20260905044954 69 0 1.0 3.0 0.00 0.00 0.00 90 1013.0
20260905044447 69 0 2.0 4.0 0.00 0.00 0.00 90 1013.0
20260905044003 69 0 2.0 4.0 0.00 0.00 0.00 90 1012.9
20260905043450 69 182 2.0 4.0 0.00 0.00 0.00 90 1012.7
20260905043048 69 0 1.0 3.0 0.00 0.00 0.00 90 1012.7
20260905043007 69 219 1.0 4.0 0.00 0.00 0.00 90 1012.8
20260905042216 69 0 1.0 3.0 0.00 0.00 0.00 89 1012.6
20260905041444 69 230 1.0 5.0 0.00 0.00 0.00 89 1012.7
20260905040941 69 213 1.0 5.0 0.00 0.00 0.00 89 1012.7
20260905040457 70 225 1.0 3.0 0.00 0.00 0.00 89 1012.6
20260905040029 70 221 1.0 6.0 0.00 0.00 0.00 88 1012.5
20260905035957 70 218 1.0 3.0 0.00 0.00 0.00 89 1012.6
20260905034938 70 0 1.0 6.0 0.00 0.00 0.00 88 1012.4
20260905034435 70 195 1.0 7.0 0.00 0.00 0.00 88 1012.4
20260905033941 70 229 1.0 7.0 0.00 0.00 0.00 87 1012.3
20260905033432 70 211 1.0 4.0 0.00 0.00 0.00 87 1012.3
20260905033031 70 0 2.0 5.0 0.00 0.00 0.00 87 1012.0
20260905032959 70 254 2.0 4.0 0.00 0.00 0.00 87 1012.4
20260905032604 70 234 2.0 5.0 0.00 0.00 0.00 87 1012.3
20260905031434 70 0 2.0 6.0 0.00 0.00 0.00 86 1012.0
20260905030948 70 256 2.0 8.0 0.00 0.00 0.00 86 1011.9
20260905030435 70 213 1.0 8.0 0.00 0.00 0.00 86 1011.9
20260905030008 70 0 1.0 3.0 0.00 0.00 0.00 86 1011.8
20260905025439 70 0 2.0 6.0 0.00 0.00 0.00 85 1011.9
20260905024941 70 0 2.0 6.0 0.00 0.00 0.00 85 1011.7
20260905024430 70 211 2.0 6.0 0.00 0.00 0.00 85 1011.8
20260905024109 71 0 2.0 6.0 0.00 0.00 0.00 85 1011.9
20260905024025 70 0 2.0 6.0 0.00 0.00 0.00 85 1011.8
20260905022934 71 0 2.0 4.0 0.00 0.00 0.00 85 1011.8
20260905022652 71 0 2.0 8.0 0.00 0.00 0.00 85 1011.7
20260905021938 71 0 3.0 8.0 0.00 0.00 0.00 84 1011.7
20260905021432 71 0 2.0 7.0 0.00 0.00 0.00 84 1011.7
20260905020928 71 273 2.0 7.0 0.00 0.00 0.00 84 1011.8
20260905020431 71 0 3.0 8.0 0.00 0.00 0.00 84 1011.8
20260905015947 72 265 3.0 9.0 0.00 0.00 0.00 83 1011.9
20260905015937 72 206 3.0 9.0 0.00 0.00 0.00 83 1011.9
20260905014939 72 262 3.0 6.0 0.00 0.00 0.00 83 1011.9
20260905014858 74 209 3.0 6.0 0.00 0.00 0.00 78 1012.1
20260905014550 72 265 3.0 8.0 0.00 0.00 0.00 82 1011.9
20260905014044 73 0 3.0 8.0 0.00 0.00 0.00 79 1012.1
20260905014027 74 210 3.0 7.0 0.00 0.00 0.00 79 1012.2
20260905013955 72 301 3.0 8.0 0.00 0.00 0.00 81 1012.0
20260905013544 73 0 3.0 9.0 0.00 0.00 0.00 81 1012.0
20260905012952 73 222 3.0 9.0 0.00 0.00 0.00 81 1012.0
20260905012551 73 0 3.0 8.0 0.00 0.00 0.00 80 1012.2
20260905011617 74 225 3.0 7.0 0.00 0.00 0.00 79 1012.0
20260905010007 75 0 3.0 8.0 0.00 0.00 0.00 76 1012.2
20260905005926 74 269 3.0 8.0 0.00 0.00 0.00 77 1012.0
20260905004936 75 255 3.0 8.0 0.00 0.00 0.00 76 1012.2
20260905004425 75 0 3.0 9.0 0.00 0.00 0.00 77 1012.3
20260905003923 75 215 3.0 9.0 0.00 0.00 0.00 76 1012.4
20260905003447 75 0 4.0 10.0 0.00 0.00 0.00 76 1012.3
20260905003437 75 184 4.0 10.0 0.00 0.00 0.00 76 1012.4
20260905002421 76 0 4.0 10.0 0.00 0.00 0.00 76 1012.3
20260905001921 76 0 4.0 10.0 0.00 0.00 0.00 75 1012.2
20260905001423 76 266 4.0 9.0 0.00 0.00 0.00 75 1012.2
20260905001000 76 211 4.0 11.0 0.00 0.00 0.00 74 1012.2
20260905000923 76 0 4.0 9.0 0.00 0.00 0.00 74 1012.3
20260905000744 76 211 4.0 11.0 0.00 0.00 0.00 74 1012.2
20260904235937 77 249 4.0 10.0 0.00 0.00 0.00 74 1012.2
20260904235929 76 225 4.0 11.0 0.00 0.00 0.00 74 1012.1
20260904234917 77 249 4.0 10.0 0.00 0.00 0.00 74 1012.2
20260904234425 77 209 4.0 11.0 0.00 0.00 0.00 73 1012.2
20260904233916 77 284 4.0 11.0 0.00 0.00 0.00 72 1012.2
20260904233416 77 218 4.0 9.0 0.00 0.00 0.00 72 1012.2
20260904232922 77 268 4.0 10.0 0.00 0.00 0.00 73 1012.2
20260904232420 77 0 4.0 10.0 0.00 0.00 0.00 72 1012.2
20260904231916 77 215 4.0 10.0 0.00 0.00 0.00 71 1012.2
20260904231821 78 0 4.0 10.0 0.00 0.00 0.00 72 1012.2
20260904230918 78 250 4.0 9.0 0.00 0.00 0.00 72 1012.3
20260904230420 78 0 4.0 9.0 0.00 0.00 0.00 71 1012.3
20260904225916 78 0 4.0 9.0 0.00 0.00 0.00 70 1012.3
20260904225415 78 0 4.0 10.0 0.00 0.00 0.00 71 1012.3
20260904224923 77 0 4.0 11.0 0.00 0.00 0.00 71 1012.5
20260904224913 78 0 4.0 11.0 0.00 0.00 0.00 71 1012.4
20260904223915 77 0 5.0 9.0 0.00 0.00 0.00 72 1012.5
20260904223821 77 252 5.0 9.0 0.00 0.00 0.00 72 1012.5
20260904222908 77 196 4.0 10.0 0.00 0.00 0.00 72 1012.6
20260904222409 77 0 4.0 10.0 0.00 0.00 0.00 72 1012.6
20260904222113 78 265 4.0 11.0 0.00 0.00 0.00 72 1012.7
20260904222101 78 0 5.0 11.0 0.00 0.00 0.00 72 1012.7
20260904221951 78 0 4.0 10.0 0.00 0.00 0.00 72 1012.6
20260904220407 78 0 5.0 11.0 0.00 0.00 0.00 71 1012.7
20260904215906 78 202 5.0 11.0 0.00 0.00 0.00 70 1012.8
20260904215407 78 0 4.0 11.0 0.00 0.00 0.00 70 1012.8
20260904214910 78 263 4.0 10.0 0.00 0.00 0.00 71 1012.8
20260904214409 78 0 4.0 11.0 0.00 0.00 0.00 71 1012.8
20260904213909 78 0 4.0 11.0 0.00 0.00 0.00 70 1012.8
20260904213408 78 0 4.0 9.0 0.00 0.00 0.00 71 1012.8
20260904212906 77 0 5.0 9.0 0.00 0.00 0.00 71 1012.9
20260904212406 78 220 4.0 9.0 0.00 0.00 0.00 71 1012.9
20260904211915 78 0 4.0 9.0 0.00 0.00 0.00 71 1012.9
20260904211408 78 0 5.0 10.0 0.00 0.00 0.00 71 1012.9
20260904210907 78 0 5.0 10.0 0.00 0.00 0.00 70 1012.9
20260904210659 77 0 4.0 10.0 0.00 0.00 0.00 71 1012.8
20260904210500 77 0 4.0 10.0 0.00 0.00 0.00 71 1012.8
20260904210309 78 0 4.0 12.0 0.00 0.00 0.00 70 1012.9
20260904205404 78 200 4.0 12.0 0.00 0.00 0.00 70 1013.0
20260904204924 77 167 4.0 9.0 0.00 0.00 0.00 71 1012.9
20260904204911 78 254 4.0 9.0 0.00 0.00 0.00 70 1012.9
20260904203905 77 0 4.0 11.0 0.00 0.00 0.00 71 1012.9
20260904203404 77 0 4.0 11.0 0.00 0.00 0.00 70 1013.0
20260904202908 77 0 5.0 11.0 0.00 0.00 0.00 70 1012.9
20260904202405 77 0 5.0 13.0 0.00 0.00 0.00 71 1013.0
20260904202353 78 0 5.0 13.0 0.00 0.00 0.00 70 1013.2
20260904201406 78 0 5.0 10.0 0.00 0.00 0.00 70 1013.3
20260904200903 78 195 4.0 9.0 0.00 0.00 0.00 72 1013.2
20260904200402 78 0 4.0 9.0 0.00 0.00 0.00 72 1013.3
20260904195905 78 0 4.0 11.0 0.00 0.00 0.00 72 1013.3
20260904195428 77 0 4.0 11.0 0.00 0.00 0.00 72 1013.3
20260904195351 77 273 4.0 10.0 0.00 0.00 0.00 72 1013.4
20260904194413 77 259 5.0 10.0 0.00 0.00 0.00 72 1013.3
20260904193916 77 0 4.0 10.0 0.00 0.00 0.00 71 1013.5
20260904193434 77 0 4.0 9.0 0.00 0.00 0.00 71 1013.4
20260904193145 77 196 4.0 9.0 0.00 0.00 0.00 71 1013.6
20260904192921 77 196 4.0 9.0 0.00 0.00 0.00 71 1013.6
20260904192440 77 198 4.0 9.0 0.00 0.00 0.00 70 1013.7
20260904192217 77 278 3.0 8.0 0.00 0.00 0.00 70 1013.6
20260904191432 77 322 4.0 10.0 0.00 0.00 0.00 70 1013.7
20260904190930 77 0 4.0 10.0 0.00 0.00 0.00 70 1013.8
20260904190413 77 190 3.0 10.0 0.00 0.00 0.00 69 1013.8
20260904185920 77 198 3.0 7.0 0.00 0.00 0.00 70 1013.8
20260904185759 77 263 3.0 9.0 0.00 0.00 0.00 69 1013.9
20260904185524 77 299 4.0 8.0 0.00 0.00 0.00 69 1013.9
20260904184930 77 252 3.0 8.0 0.00 0.00 0.00 69 1013.9
20260904184830 78 231 3.0 9.0 0.00 0.00 0.00 69 1013.9
20260904184545 77 0 3.0 9.0 0.00 0.00 0.00 69 1013.9
20260904183208 78 233 3.0 9.0 0.00 0.00 0.00 68 1013.9
20260904182915 78 233 3.0 9.0 0.00 0.00 0.00 68 1013.9